ONEWEB-0058 (45161 NORAD) Tracking and Keplerian Element Data

This shows tracking and keplerian element data for the satellite.

Feedback or suggestion? Click here.




ElementValue
Catalog45161
NameONEWEB-0058
Epoch Orbit839
Epoch Day87.97907042
Epoch Year2020
RAAN147.2705
Inclination87.4826
Eccentricity0.0023948
Argument of Perigee125.1267
Mean Anonmoly235.222
Mean Motion15.07696524
Decay Rate-0.0016511
L11 45161U 20008AG 20087.97907042 -.00165110 00000-0 -11015-1 0 9997
L22 45161 87.4826 147.2705 0023948 125.1267 235.2220 15.07696524 8391

Live tracking and technical data element details for ONEWEB-0058 (NORAD 45161). ONEWEB-0058 can be tracked NOW for your location showing map with azimuth and elevation plus other details from your city location.

Track the satellite on the map from your city or location and see movement details for azimuth, elevation, latitude, longitude, range, height, and movement on the map or in text.







IsCatalogInMostPopularTable: catalog: 45161, numindb: 9
Update: records affected: 1



GetName: 45161 ONEWEB-0058

Hit Count: updated at: Tue, 31 Mar 2020 12:15:44 GMT